Regional Weather Roundup
Issued by NWS

Home | Current Version | Previous Version | Text Only | Print | Product List | Glossary On
Versions: 1 2 3 4 5 6 7 8 9 10 11 12 13 14 15 16 17 18 19 20 21 22 23 24 25 26 27 28 29 30 31 32 33 34 35 36 37 38 39 40 41 42 43 44 45 46 47 48 49 50
000
ASUS43 KDMX 120407
RWRIA

WEATHER ROUNDUP FOR IOWA
NATIONAL WEATHER SERVICE DES MOINES IA
1100 PM CDT FRI JUL 11 2014

NOTE: "FAIR" INDICATES FEW OR NO CLOUDS BELOW 12,000 FEET WITH NO
SIGNIFICANT WEATHER AND/OR OBSTRUCTIONS TO VISIBILITY.

* - THESE STATIONS ARE NOT NWS STATIONS...THUS NOT UNDER NWS
QUALITY CONTROL.  THEY ALSO DO NOT REPORT WEATHER SUCH
AS PRECIPITATION OR FOG.

IAZ001>003-012>014-020>022-031>034-043>046-120500-
   NORTHWEST IOWA

CITY           SKY/WX    TMP DP  RH WIND       PRES   REMARKS
CARROLL *      CLEAR     70  70 100 N6        30.05R FOG
CHEROKEE *     LGT RAIN  72  72 100 CALM      30.03F
DENISON *      CLEAR     72  72 100 NE6       30.02R
LE MARS *      MOCLDY    73  72  94 CALM      30.02F FOG
ORANGE CITY *  DRIZZLE   73  70  88 CALM      30.04S
SHELDON *      CLEAR     72  70  94 S3        30.03S FOG
SIOUX CITY     CLOUDY    73  71  93 E5        30.00F
SPENCER        CLOUDY    72  69  90 S6        30.05R
STORM LAKE *   PTCLDY    70  70 100 CALM      30.06S FOG
$$

IAZ055>058-069>071-079>083-090>094-120500-
   SOUTHWEST IOWA

CITY           SKY/WX    TMP DP  RH WIND       PRES   REMARKS
ATLANTIC *     CLEAR     75  73  94 CALM      30.01F
AUDUBON *      CLEAR     73  72  94 CALM      30.04S FOG
CLARINDA *     CLEAR     77  75  94 CALM      30.02S
COUNCIL BLFS * CLEAR     77  77 100 E8        29.99F
CRESTON *      CLEAR     73  73 100 E7        30.04S
HARLAN  *      CLEAR     73  73 100 E5        30.05S
LAMONI         CLEAR     76  73  91 E5        30.04R
RED OAK *      CLOUDY    79  75  89 E6        30.01S HX  82
SHENANDOAH *   CLEAR     77  75  94 E3        30.01R
$$

IAZ047>049-059>061-072>074-084-120500-
   CENTRAL IOWA

CITY           SKY/WX    TMP DP  RH WIND       PRES   REMARKS
AMES           CLOUDY    71  70  96 CALM      30.03S
ANKENY *       CLEAR     72  72 100 CALM      30.02S
CHARITON *     PTCLDY    73  72  94 SE5       30.04S FOG
DES MOINES     CLOUDY    75  71  87 SE6       30.02S
GRINNELL*      CLOUDY    72  70  94 SE5       30.04F
KNOXVILLE *    CLOUDY    73  72  94 CALM      30.02S
MARSHALLTOWN   MOCLDY    72  70  93 E6        30.03F
PELLA *        CLOUDY    73  72  94 SE3       30.04F
PERRY *          N/A     72  70  94 NE3       30.04R
$$

IAZ004>006-015-016-023>025-035-036-120500-
   NORTH CENTRAL IOWA

CITY           SKY/WX    TMP DP  RH WIND       PRES   REMARKS
ALGONA *       CLEAR     70  70 100 S6        30.05R
CLARION *      CLEAR     70  68  94 SE3       30.05R
ESTHERVILLE    MOCLDY    71  69  93 S6        30.04R
FORT DODGE *   CLOUDY    70  68  94 CALM      30.05S
MASON CITY     CLEAR     67  66  97 S7        30.06R
FOREST CITY *  CLEAR     68  66  94 CALM      30.05R
IOWA FALLS *   CLOUDY    72  68  88 CALM      30.06R
$$

IAZ007>011-017>019-026>030-037>042-050>054-066-120500-
   NORTHEAST IOWA

CITY           SKY/WX    TMP DP  RH WIND       PRES   REMARKS
CEDAR RAPIDS   CLOUDY    71  68  90 SE5       30.05R
CHARLES CITY * MOCLDY    72  68  88 S5        30.06S
CLINTON *      MOCLDY    72  66  83 SE8       30.11S
DECORAH *        N/A    N/A N/A N/A MISG        N/A
DUBUQUE        MOCLDY    71  67  87 S9        30.08S
MONTICELLO *   MOCLDY    72  68  88 SE5       30.06S
OELWEIN *      CLOUDY    72  72 100 SE7       30.06S
WATERLOO       CLOUDY    74  69  85 SE6       30.03S
$$

IAZ064-065-067-068-078-120500-
   EAST CENTRAL IOWA

CITY           SKY/WX    TMP DP  RH WIND       PRES   REMARKS
DAVENPORT      MOCLDY    74  66  76 SE9       30.08S
IOWA CITY      PTCLDY    73  69  87 E6        30.06S
MT. PLEASANT * CLOUDY    73  70  88 E6        30.06S
MUSCATINE *    CLOUDY    75  68  78 CALM      30.06S
QUAD CITIES    PTCLDY    72  67  84 E6        30.07S
$$

IAZ062-063-075>077-085>089-095>099-120500-
   SOUTHEAST IOWA

CITY           SKY/WX    TMP DP  RH WIND       PRES   REMARKS
BURLINGTON     MOCLDY    75  70  84 E5        30.06R
FAIRFIELD *    CLOUDY    73  70  88 E6        30.05S
FORT MADISON * PTCLDY    77  72  83 SE5       30.07R
KEOKUK *       CLOUDY    77  72  83 SE6       30.05S
OSKALOOSA *      N/A     73  72  94 SE5       30.04S
CENTERVILLE *  CLEAR     73  73 100 E5        30.07R
OTTUMWA        CLOUDY    72  71  97 E3        30.04R FOG
WASHINGTON *   MOCLDY    73  70  88 SE7       30.05S
$$

ABBREVIATIONS USED IN REMARKS
   TC - TEMPERATURES IN CELSIUS
  WCI - WIND CHILL INDEX
   HX - HEAT INDEX
  VSB - VISIBILITY
$$



USA.gov is the U.S. government's official web portal to all federal, state and local government web resources and services.